map of TTT home
TTT - Airport
Location
City:  Taitung, Taiwan
Name:Fengnin
ICAO:RCFN
IATA:TTT

Details
Type:Airport (Aerodrome, Airfield)
Use:Public/Civil
Latitude:2245'18"N (22.754986)
Longitude:12106'06"E (121.101681)
Datum:WGS 1984
Elevation:143 ft (44 m)
Variation:3.85W (WMM2015 magnetic declination)
-0.09 annual change
Runways:1
Longest:8002 × 148 ft (2439 × 45 m), paved

Time
Time Zone:UTC+8
Local Time:

Weather
METAR:RCFN 290530Z 03004KT 330V080 9999 FEW018 SCT025 BKN050 23/17 Q1014 NOSIG RMK A2996
TAF:RCFN 290500Z 2906/3006 04008KT 9999 FEW012 BKN032
TEMPO 2906/2912 10005KT 5000 RA FEW010 BKN020 BKN040
BECMG 2913/2915 33005KT
BECMG 3001/3003 05005KT

Related Locations
Nearby:
Farthest:VMI: 12366 mi / 19902 km
Puerto Vallemi [Dr. Juan Plate Airport], 1, PY

Find:

   beyond  
but within

Other Information
Maps:
NOTAMs:
Links:
Sources:

  
flag of Taiwan   

Sectional Chart

Flight Planning
at skyvector.com

Satellite Image

Google Maps Satellite view

 

Copyright © 2004-2017 Karl L. Swartz. All rights reserved.
The Great Circle Mapper name and logo are trademarks of the Great Circle Mapper.
All other trademarks mentioned herein belong to their respective owners.
Please see credits for attibutions and further copyright information.

  Follow gcmap on Facebook Follow gcmap on Twitter Follow gcmap on Google+ GCmap on LinkedIn

hCard Microformat

Geo Microformat